Regional Weather Roundup
Issued by NWS

Home | Current Version | Previous Version | Graphics & Text | Print | Product List | Glossary On
Versions: 1 2 3 4 5 6 7 8 9 10 11 12 13 14 15 16 17 18 19 20 21 22 23 24 25 26 27 28 29 30 31 32 33 34 35 36 37 38 39 40 41 42 43 44 45 46 47 48 49 50
000
ASUS45 KBOI 041810
RWRID

IDAHO REGIONAL WEATHER ROUNDUP
NATIONAL WEATHER SERVICE BOISE ID
1200 PM MDT FRI SEP 04 2015

NOTE: "FAIR" INDICATES FEW OR NO CLOUDS BELOW 12000 FEET
WITH NO SIGNIFICANT WEATHER AND/OR OBSTRUCTIONS TO VISIBILITY

IDZ012-014-041900-
SOUTHWEST IDAHO


CITY           SKY/WX    TMP DP  RH WIND       PRES   REMARKS
BOISE          MOSUNNY   63  42  46 W7        29.83S
CALDWELL       MOSUNNY   63  36  36 W9        29.84F
MOUNTAIN HOME  MOSUNNY   61  39  44 VRB2      29.83F
$$

IDZ016-017-041900-
SOUTHCENTRAL IDAHO


CITY           SKY/WX    TMP DP  RH WIND       PRES   REMARKS
BURLEY         MOSUNNY   65  41  41 NW6       29.85F
JEROME         PTSUNNY   62  40  44 W7        29.86F
TWIN FALLS     MOSUNNY   68  39  34 VRB5      29.86F
$$

IDZ019>023-041900-
SOUTHEAST IDAHO


CITY           SKY/WX    TMP DP  RH WIND       PRES   REMARKS
IDAHO FALLS    SUNNY     64  38  38 SW12      29.89F
POCATELLO      MOSUNNY   65  39  38 W7        29.88F
REXBURG        SUNNY     64  38  38 SW7       29.89F
$$

IDZ006-010-011-018-031-032-041900-
CENTRAL IDAHO MOUNTAINS


CITY           SKY/WX    TMP DP  RH WIND       PRES   REMARKS
MCCALL         SUNNY     55  35  47 CALM      29.87F
HAILEY         PTSUNNY   61  45  55 NW17      29.91F
STANLEY          N/A     47  39  74 NW5       29.97F
SALMON         CLOUDY    46  45  93 CALM      29.98S
CHALLIS        CLOUDY    47  43  86 CALM      29.97F
$$

IDZ002-004-006-007-026-041900-
NORTHERN IDAHO


CITY           SKY/WX    TMP DP  RH WIND       PRES   REMARKS
LEWISTON       SUNNY     59  44  57 CALM      29.92F
LOWELL           N/A     56  47  71 S9        29.93F
COEUR D`ALENE  SUNNY     63  41  45 N13G18    29.94F
MULLAN PASS    PTSUNNY   44  35  70 CALM      29.98S
$$



USA.gov is the U.S. government's official web portal to all federal, state and local government web resources and services.